This is the latest recevied weather packets stored in our database for station/object CT4TX-11. If no packets are shown the sender has not sent any weather packets the latest 10 day(s).
| Time | Temp. | Humidity | Pressure | Rain* | Wind** | Luminosity | Snow |
|---|---|---|---|---|---|---|---|
| 1777529096 | 25° C | 41% | 1002.8 hPa | - | - | - | - |
| 1777528196 | 25° C | 42% | 1002.6 hPa | - | - | - | - |
| 1777527296 | 25.56° C | 42% | 1002.4 hPa | - | - | - | - |
| 1777526401 | 25.56° C | 41% | 1002.2 hPa | - | - | - | - |
| 1777525501 | 25° C | 41% | 1002.3 hPa | - | - | - | - |
| 1777524601 | 25.56° C | 43% | 1002.2 hPa | - | - | - | - |
| 1777523700 | 25.56° C | 43% | 1002.1 hPa | - | - | - | - |
| 1777522800 | 25.56° C | 43% | 1002 hPa | - | - | - | - |
| 1777521900 | 25.56° C | 42% | 1002 hPa | - | - | - | - |
| 1777520999 | 25.56° C | 43% | 1002 hPa | - | - | - | - |
| 1777520099 | 25.56° C | 41% | 1001.9 hPa | - | - | - | - |
| 1777519199 | 25.56° C | 41% | 1001.7 hPa | - | - | - | - |
| 1777518298 | 25.56° C | 41% | 1001.8 hPa | - | - | - | - |
| 1777517398 | 25.56° C | 44% | 1001.5 hPa | - | - | - | - |
| 1777516498 | 25.56° C | 43% | 1001.5 hPa | - | - | - | - |
| 1777515598 | 25.56° C | 43% | 1001.5 hPa | - | - | - | - |
| 1777514697 | 25.56° C | 42% | 1001.5 hPa | - | - | - | - |
| 1777513797 | 25.56° C | 41% | 1001.5 hPa | - | - | - | - |
| 1777512897 | 25.56° C | 43% | 1001.4 hPa | - | - | - | - |
| 1777511997 | 25.56° C | 42% | 1001.4 hPa | - | - | - | - |
| 1777511096 | 26.11° C | 43% | 1001.5 hPa | - | - | - | - |
| 1777510196 | 26.11° C | 43% | 1001.5 hPa | - | - | - | - |
| 1777509296 | 26.11° C | 45% | 1001.3 hPa | - | - | - | - |
| 1777508396 | 26.11° C | 45% | 1001.3 hPa | - | - | - | - |
| 1777507496 | 26.11° C | 42% | 1001.2 hPa | - | - | - | - |
* Rain since midnight (hover to see other rain measurements)
** Current wind speed in m/s (hover to see current wind gust speed)